Tracking 18630 objects as of 24-May-2017
HD Live streaming from Space Station
objects crossing your sky now

NOAA 2 (ITOS-D)

Track NOAA 2 (ITOS-D) now!
10-day predictions
NOAA 2 (ITOS-D) is classified as:


NORAD ID: 6235
Int'l Code: 1972-082A
Perigee: 1,455.3 km
Apogee: 1,462.1 km
Inclination: 101.7 °
Period: 114.9 minutes
Semi major axis: 7829 km
RCS: 2.925 m2 (large)
Launch date: October 15, 1972
Source: United States (US)
Launch site: AIR FORCE WESTERN TEST RANGE (AFWTR)
Your satellite tracking list
Your tracking list is empty





NASA's NSSDC Master Catalog

Two Line Element Set (TLE):
1  6235U 72082A   17143.96770030 -.00000029 +00000-0 +10068-3 0  9993
2  6235 101.6796 109.4758 0004360 038.5682 005.1271 12.53092943040184
Source of the keplerian elements: AFSPC